Home > Time Zones > World Clock > Weather > Iran > Ahvaz > Past weeks

Flag for Iran Weather past 2 weeks in Ahvaz, Iran

Now
54 °F

Clear.


Feels Like: 54 °F
Forecast: 58 / 74 °F
Wind: No wind

Location: Ahwaz

Current Time: Dec 19, 2014 at 9:46:06 PM

Latest Report: Dec 19, 2014 at 9:00 PM


Visibility: 4 mi

Pressure: 30.15 "Hg

Humidity: 94%

Dew point: 52 °F

Location of AhvazLocation

Historic Weather in Ahvaz — Graph

°F

Ahvaz temperature yesterday

Maximum temperature yesterday: 59 °F (at 1:30 PM)
Minimum temperature yesterday: 48 °F (at 5:30 AM)
Average temperature yesterday: 52 °F

Past Weeks' High & Low Weather Summary

 TemperatureHumidityPressure
High79 °F (Dec 14, 3:00 PM)100% (Dec 18, 12:30 AM)30.24 "Hg (Dec 18, 12:30 AM)
Low46 °F (Dec 14, 4:30 AM)28% (Dec 11, 3:30 PM)30.04 "Hg (Dec 12, 1:30 PM)
Average62 °F71%30.12 "Hg
* Reported Dec 4 8:30 PM — Dec 19 8:30 PM, Ahvaz, Weather by CustomWeather, © 2014

Note: Actual official high and low records may vary slightly from our data, if they occured in-between our weather recording intervals... More about our weather records

Advertising

Ahvaz weather history for previous 24 hours

 ConditionsComfort  
Time TempWeatherWind HumidityBarometerVisibility
8:30 PM
Dec 19
55 °FClear.No wind94%30.15 "Hg4 mi
8:00 PM55 °FClear.No wind94%30.15 "Hg4 mi
7:30 PM55 °FClear.No wind94%30.15 "Hg4 mi
7:00 PM57 °FClear.No wind88%30.15 "Hg4 mi
6:30 PM57 °FClear.No wind88%30.15 "Hg4 mi
6:00 PM59 °FClear.No wind82%30.15 "Hg4 mi
5:30 PM59 °FFog.No wind82%30.15 "Hg4 mi
5:00 PM61 °FHaze.2 mph72%30.15 "Hg3 mi
4:30 PM61 °FHaze.2 mph72%30.15 "Hg3 mi
4:00 PM61 °FHaze.5 mph72%30.15 "Hg3 mi
3:30 PM61 °FHaze.5 mph72%30.15 "Hg3 mi
3:00 PM61 °FHaze.5 mph77%30.15 "Hg2 mi
2:30 PM61 °FHaze.5 mph77%30.15 "Hg2 mi
1:30 PM59 °FFog.No wind82%30.15 "Hg2 mi
12:30 PM55 °FFog.No wind88%30.21 "Hg1 mi
11:30 AM52 °FFog.No wind94%30.21 "Hg1 mi
10:30 AM50 °FFog.2 mph100%30.24 "Hg0 mi
9:30 AM50 °FFog.2 mph100%30.21 "Hg0 mi
8:30 AM48 °FFog.No wind100%30.21 "Hg0 mi
7:30 AM48 °FFog.No wind100%30.21 "Hg0 mi
7:00 AM48 °FFog.No wind100%30.18 "Hg0 mi
6:30 AM48 °FFog.No wind100%30.18 "Hg0 mi
5:30 AM48 °FFog.No wind100%30.18 "Hg0 mi
4:30 AM48 °FFog.2 mph100%30.18 "Hg0 mi
3:30 AM48 °FFog.2 mph100%30.18 "Hg0 mi
2:30 AM48 °FFog.2 mph100%30.18 "Hg0 mi
1:30 AM48 °FFog.No wind100%30.18 "Hg0 mi
12:30 AM50 °FFog.No wind100%30.18 "Hg0 mi
11:30 PM
Dec 18
50 °FFog.5 mph100%30.21 "Hg0 mi
11:00 PM52 °FFog.No wind94%30.21 "Hg1 mi
10:30 PM52 °FFog.No wind94%30.21 "Hg2 mi
9:30 PM52 °FFog.No wind94%30.21 "Hg1 mi
Weather by CustomWeather, © 2014

See weather overviewHow to use our weather pages